| time (UTC) | temp F | wind direction | speed knots | gust knots | rain 1hr in | rain 24hr in | rain mn in | humidity % | barometer mb |
| 20260505140628 | 91 | 120 | 3.5 | 5.2 | 0.00 | 0.00 | 0.00 | 58 | 1017.9 |
| 20260505140125 | 90 | 58 | 2.6 | 5.2 | 0.00 | 0.00 | 0.00 | 59 | 1017.7 |
| 20260505124543 | 86 | 189 | 5.2 | 8.7 | 0.00 | 0.00 | 0.00 | 67 | 1017.8 |
| 20260505124039 | 85 | 103 | 3.5 | 7.0 | 0.00 | 0.00 | 0.00 | 69 | 1017.6 |
| 20260505123536 | 85 | 143 | 4.3 | 7.8 | 0.00 | 0.00 | 0.00 | 70 | 1017.6 |
| 20260505123032 | 84 | 145 | 5.2 | 7.8 | 0.00 | 0.00 | 0.00 | 71 | 1017.6 |
| 20260505122530 | 84 | 125 | 4.3 | 7.0 | 0.00 | 0.00 | 0.00 | 71 | 1017.7 |
| 20260505122026 | 85 | 53 | 1.7 | 5.2 | 0.00 | 0.00 | 0.00 | 72 | 1017.5 |
| 20260505121523 | 84 | 105 | 1.7 | 5.2 | 0.00 | 0.00 | 0.00 | 73 | 1017.7 |
| 20260505121019 | 84 | 208 | 1.7 | 6.1 | 0.00 | 0.00 | 0.00 | 74 | 1017.7 |
| 20260505120516 | 84 | 114 | 0.9 | 5.2 | 0.00 | 0.00 | 0.00 | 74 | 1017.5 |
| 20260505120011 | 83 | 141 | 0.0 | 5.2 | 0.00 | 0.00 | 0.00 | 74 | 1017.4 |
| 20260505115506 | 83 | 114 | 4.3 | 6.1 | 0.00 | 0.00 | 0.00 | 74 | 1017.4 |
| 20260505115004 | 84 | 132 | 1.7 | 3.5 | 0.00 | 0.00 | 0.00 | 74 | 1017.2 |
| 20260505114501 | 83 | 126 | 0.9 | 3.5 | 0.00 | 0.00 | 0.00 | 75 | 1017.3 |
| 20260505113957 | 83 | 102 | 0.9 | 3.5 | 0.00 | 0.00 | 0.00 | 76 | 1017.1 |
| 20260505113454 | 83 | 107 | 1.7 | 2.6 | 0.00 | 0.00 | 0.00 | 76 | 1017.0 |
| 20260505112949 | 82 | 114 | 3.5 | 3.5 | 0.00 | 0.00 | 0.00 | 77 | 1017.3 |
| 20260505112447 | 82 | 41 | 0.0 | 1.7 | 0.00 | 0.00 | 0.00 | 78 | 1017.2 |
| 20260505111944 | 82 | 64 | 1.7 | 2.6 | 0.00 | 0.00 | 0.00 | 78 | 1017.0 |
| 20260505111443 | 82 | 294 | 0.9 | 1.7 | 0.00 | 0.00 | 0.00 | 79 | 1017.4 |
| 20260505110940 | 81 | 157 | 0.9 | 1.7 | 0.00 | 0.00 | 0.00 | 80 | 1017.0 |
| 20260505110438 | 81 | 120 | 0.9 | 1.7 | 0.00 | 0.00 | 0.00 | 81 | 1017.2 |
| 20260505101909 | 78 | 81 | 0.0 | 0.0 | 0.00 | 0.00 | 0.00 | 87 | 1016.6 |
| 20260505101409 | 78 | 102 | 0.9 | 1.7 | 0.00 | 0.00 | 0.00 | 87 | 1016.5 |
| 20260505100905 | 78 | 120 | 0.0 | 0.9 | 0.00 | 0.00 | 0.00 | 87 | 1016.5 |
| 20260505100402 | 78 | 64 | 0.9 | 2.6 | 0.00 | 0.00 | 0.00 | 87 | 1016.3 |
| 20260505095857 | 78 | 92 | 0.0 | 1.7 | 0.00 | 0.00 | 0.00 | 87 | 1016.3 |
| 20260505095355 | 78 | 188 | 0.9 | 1.7 | 0.00 | 0.00 | 0.00 | 87 | 1016.3 |
| 20260505094851 | 78 | 112 | 0.9 | 1.7 | 0.00 | 0.00 | 0.00 | 87 | 1016.1 |
| 20260505094348 | 78 | 103 | 0.9 | 1.7 | 0.00 | 0.00 | 0.00 | 87 | 1016.3 |
| 20260505093844 | 78 | 161 | 0.0 | 0.9 | 0.00 | 0.00 | 0.00 | 87 | 1016.2 |
| 20260505093341 | 78 | 176 | 0.0 | 0.9 | 0.00 | 0.00 | 0.00 | 86 | 1016.0 |
| 20260505092838 | 78 | 114 | 0.0 | 3.5 | 0.00 | 0.00 | 0.00 | 86 | 1016.3 |
| 20260505092337 | 78 | 184 | 0.0 | 1.7 | 0.00 | 0.00 | 0.00 | 87 | 1016.4 |
| 20260505091833 | 78 | 163 | 0.0 | 0.9 | 0.00 | 0.00 | 0.00 | 87 | 1016.2 |
| 20260505091331 | 78 | 154 | 0.9 | 1.7 | 0.00 | 0.00 | 0.00 | 87 | 1016.1 |
| 20260505090829 | 78 | 142 | 0.9 | 1.7 | 0.00 | 0.00 | 0.00 | 87 | 1016.3 |
| 20260505090327 | 78 | 126 | 0.9 | 1.7 | 0.00 | 0.00 | 0.00 | 87 | 1016.1 |
| 20260505085824 | 78 | 181 | 1.7 | 1.7 | 0.00 | 0.00 | 0.00 | 87 | 1015.8 |
| 20260505085322 | 78 | 141 | 0.9 | 2.6 | 0.00 | 0.00 | 0.00 | 88 | 1016.0 |
| 20260505084819 | 76 | 244 | 0.0 | 0.9 | 0.00 | 0.00 | 0.00 | 88 | 1016.1 |
| 20260505084318 | 76 | 257 | 0.0 | 0.0 | 0.00 | 0.00 | 0.00 | 87 | 1016.1 |
| 20260505083814 | 76 | 257 | 0.0 | 0.0 | 0.00 | 0.00 | 0.00 | 87 | 1016.1 |
| 20260505083312 | 76 | 263 | 0.0 | 1.7 | 0.00 | 0.00 | 0.00 | 87 | 1016.1 |
| 20260505082808 | 76 | 263 | 0.9 | 1.7 | 0.00 | 0.00 | 0.00 | 87 | 1015.8 |
| 20260505082305 | 76 | 259 | 0.9 | 1.7 | 0.00 | 0.00 | 0.00 | 86 | 1015.8 |
| 20260505081801 | 77 | 258 | 0.9 | 1.7 | 0.00 | 0.00 | 0.00 | 86 | 1015.8 |
| 20260505081258 | 77 | 249 | 0.0 | 0.0 | 0.00 | 0.00 | 0.00 | 85 | 1016.1 |
| 20260505080755 | 77 | 264 | 0.0 | 0.9 | 0.00 | 0.00 | 0.00 | 84 | 1016.0 |
| 20260505080250 | 77 | 280 | 0.0 | 0.9 | 0.00 | 0.00 | 0.00 | 83 | 1016.1 |
| 20260505075746 | 78 | 289 | 0.0 | 0.0 | 0.00 | 0.00 | 0.00 | 83 | 1016.0 |
| 20260505075244 | 78 | 279 | 0.0 | 0.0 | 0.00 | 0.00 | 0.00 | 84 | 1016.0 |
| 20260505074741 | 78 | 271 | 0.0 | 0.9 | 0.00 | 0.00 | 0.00 | 84 | 1015.9 |
| 20260505074238 | 78 | 260 | 0.0 | 0.0 | 0.00 | 0.00 | 0.00 | 84 | 1015.6 |
| 20260505073736 | 78 | 252 | 0.9 | 0.9 | 0.00 | 0.00 | 0.00 | 84 | 1015.7 |
| 20260505073233 | 78 | 254 | 0.0 | 0.9 | 0.00 | 0.00 | 0.00 | 84 | 1015.7 |
| 20260505072730 | 78 | 253 | 0.0 | 0.9 | 0.00 | 0.00 | 0.00 | 84 | 1015.8 |
| 20260505072226 | 78 | 239 | 0.0 | 0.9 | 0.00 | 0.00 | 0.00 | 84 | 1015.7 |
| 20260505071721 | 78 | 247 | 0.0 | 0.0 | 0.00 | 0.00 | 0.00 | 84 | 1015.6 |
| 20260505071219 | 77 | 247 | 0.0 | 0.9 | 0.00 | 0.00 | 0.00 | 85 | 1015.6 |
| 20260505070716 | 77 | 254 | 0.9 | 0.9 | 0.00 | 0.00 | 0.00 | 85 | 1015.9 |
| 20260505070212 | 77 | 253 | 0.9 | 1.7 | 0.00 | 0.00 | 0.00 | 85 | 1015.7 |
| 20260505065708 | 78 | 247 | 0.9 | 0.9 | 0.00 | 0.00 | 0.00 | 85 | 1015.8 |
| 20260505065205 | 79 | 241 | 1.7 | 1.7 | 0.00 | 0.00 | 0.00 | 84 | 1016.0 |
| 20260505064702 | 79 | 84 | 0.0 | 0.9 | 0.00 | 0.00 | 0.00 | 85 | 1016.0 |
| 20260505064200 | 79 | 121 | 0.9 | 1.7 | 0.00 | 0.00 | 0.00 | 85 | 1015.9 |
| 20260505063657 | 79 | 113 | 0.9 | 1.7 | 0.00 | 0.00 | 0.00 | 84 | 1015.9 |
| 20260505063153 | 79 | 89 | 0.0 | 1.7 | 0.00 | 0.00 | 0.00 | 84 | 1016.1 |
| 20260505062649 | 79 | 87 | 0.0 | 1.7 | 0.00 | 0.00 | 0.00 | 84 | 1016.0 |
| 20260505062147 | 79 | 92 | 0.0 | 1.7 | 0.00 | 0.00 | 0.00 | 84 | 1016.0 |
| 20260505061644 | 79 | 119 | 0.9 | 1.7 | 0.00 | 0.00 | 0.00 | 84 | 1016.1 |
| 20260505061142 | 80 | 147 | 0.0 | 0.9 | 0.00 | 0.00 | 0.00 | 84 | 1016.0 |
| 20260505060639 | 80 | 118 | 0.9 | 1.7 | 0.00 | 0.00 | 0.00 | 83 | 1016.2 |
| 20260505060136 | 80 | 116 | 0.9 | 1.7 | 0.00 | 0.00 | 0.00 | 83 | 1016.1 |
| 20260505055631 | 80 | 127 | 0.0 | 0.9 | 0.00 | 0.00 | 0.00 | 83 | 1016.1 |
| 20260505055128 | 80 | 219 | 0.0 | 1.7 | 0.00 | 0.00 | 0.00 | 83 | 1016.1 |
| 20260505054626 | 80 | 112 | 1.7 | 2.6 | 0.00 | 0.00 | 0.00 | 82 | 1016.3 |
| 20260505054124 | 80 | 135 | 1.7 | 1.7 | 0.00 | 0.00 | 0.00 | 82 | 1016.3 |
| 20260505053621 | 80 | 169 | 0.9 | 1.7 | 0.00 | 0.00 | 0.00 | 82 | 1016.4 |
| 20260505053117 | 80 | 110 | 1.7 | 3.5 | 0.00 | 0.00 | 0.00 | 82 | 1016.3 |
| 20260505052614 | 80 | 155 | 0.9 | 2.6 | 0.00 | 0.00 | 0.00 | 82 | 1016.5 |
| 20260505052112 | 80 | 165 | 0.9 | 1.7 | 0.00 | 0.00 | 0.00 | 82 | 1016.5 |
| 20260505051608 | 80 | 142 | 0.0 | 0.9 | 0.00 | 0.00 | 0.00 | 81 | 1016.8 |
| 20260505051107 | 80 | 190 | 0.0 | 0.9 | 0.00 | 0.00 | 0.00 | 81 | 1016.6 |
| 20260505050604 | 80 | 192 | 0.9 | 0.9 | 0.00 | 0.00 | 0.00 | 81 | 1016.7 |
| 20260505041532 | 81 | 204 | 0.9 | 2.6 | 0.00 | 0.00 | 0.00 | 80 | 1017.1 |
| 20260505041029 | 81 | 216 | 0.9 | 2.6 | 0.00 | 0.00 | 0.00 | 80 | 1017.3 |
| 20260505040526 | 81 | 175 | 1.7 | 3.5 | 0.00 | 0.00 | 0.00 | 79 | 1017.4 |
| 20260505040024 | 81 | 177 | 3.5 | 3.5 | 0.00 | 0.00 | 0.00 | 79 | 1017.1 |
| 20260505035520 | 81 | 128 | 0.9 | 2.6 | 0.00 | 0.00 | 0.00 | 79 | 1017.2 |
| 20260505035016 | 81 | 133 | 0.9 | 1.7 | 0.00 | 0.00 | 0.00 | 79 | 1017.3 |
| 20260505034513 | 81 | 96 | 0.9 | 2.6 | 0.00 | 0.00 | 0.00 | 79 | 1017.3 |
| 20260505034010 | 81 | 109 | 0.9 | 2.6 | 0.00 | 0.00 | 0.00 | 78 | 1017.4 |
| 20260505033507 | 81 | 172 | 0.9 | 2.6 | 0.00 | 0.00 | 0.00 | 78 | 1017.5 |
| 20260505033005 | 82 | 96 | 1.7 | 2.6 | 0.00 | 0.00 | 0.00 | 78 | 1017.5 |
| 20260505032502 | 82 | 127 | 0.9 | 1.7 | 0.00 | 0.00 | 0.00 | 78 | 1017.7 |
| 20260505031958 | 82 | 68 | 0.9 | 3.5 | 0.00 | 0.00 | 0.00 | 78 | 1017.5 |
| 20260505031455 | 82 | 107 | 2.6 | 3.5 | 0.00 | 0.00 | 0.00 | 77 | 1017.5 |
| 20260505030952 | 82 | 104 | 0.0 | 0.9 | 0.00 | 0.00 | 0.00 | 77 | 1017.5 |
| 20260505030448 | 82 | 183 | 1.7 | 2.6 | 0.00 | 0.00 | 0.00 | 77 | 1017.5 |
| 20260505025944 | 82 | 160 | 1.7 | 2.6 | 0.00 | 0.00 | 0.00 | 77 | 1017.7 |
| 20260505025441 | 82 | 105 | 1.7 | 2.6 | 0.00 | 0.00 | 0.00 | 76 | 1017.4 |
| 20260505024940 | 82 | 108 | 0.0 | 1.7 | 0.00 | 0.00 | 0.00 | 76 | 1017.4 |
| 20260505024437 | 82 | 91 | 2.6 | 3.5 | 0.00 | 0.00 | 0.00 | 76 | 1017.5 |
| 20260505023934 | 82 | 166 | 0.9 | 1.7 | 0.00 | 0.00 | 0.00 | 76 | 1017.5 |
| 20260505023431 | 82 | 100 | 1.7 | 1.7 | 0.00 | 0.00 | 0.00 | 75 | 1017.4 |
| 20260505022928 | 82 | 126 | 0.9 | 1.7 | 0.00 | 0.00 | 0.00 | 75 | 1017.5 |
| 20260505022426 | 82 | 126 | 0.9 | 2.6 | 0.00 | 0.00 | 0.00 | 75 | 1017.5 |
| 20260505021922 | 82 | 146 | 0.9 | 2.6 | 0.00 | 0.00 | 0.00 | 75 | 1017.4 |
| 20260505021419 | 82 | 90 | 0.9 | 3.5 | 0.00 | 0.00 | 0.00 | 75 | 1017.2 |
| 20260505020915 | 82 | 153 | 1.7 | 2.6 | 0.00 | 0.00 | 0.00 | 74 | 1017.5 |
| 20260505020410 | 82 | 58 | 0.9 | 2.6 | 0.00 | 0.00 | 0.00 | 74 | 1017.1 |
| 20260505015908 | 82 | 125 | 0.9 | 2.6 | 0.00 | 0.00 | 0.00 | 74 | 1017.3 |
| 20260505015405 | 82 | 127 | 1.7 | 2.6 | 0.00 | 0.00 | 0.00 | 74 | 1017.1 |
| 20260505014902 | 82 | 112 | 1.7 | 1.7 | 0.00 | 0.00 | 0.00 | 74 | 1017.2 |
| 20260505014359 | 82 | 123 | 0.9 | 2.6 | 0.00 | 0.00 | 0.00 | 74 | 1017.2 |
| 20260505013855 | 82 | 121 | 0.9 | 2.6 | 0.00 | 0.00 | 0.00 | 73 | 1017.2 |
| 20260505013352 | 83 | 158 | 0.9 | 5.2 | 0.00 | 0.00 | 0.00 | 73 | 1017.1 |
| 20260505012851 | 83 | 102 | 1.7 | 2.6 | 0.00 | 0.00 | 0.00 | 73 | 1016.9 |
| 20260505012349 | 83 | 133 | 1.7 | 3.5 | 0.00 | 0.00 | 0.00 | 73 | 1017.1 |
| 20260505011844 | 83 | 126 | 0.9 | 2.6 | 0.00 | 0.00 | 0.00 | 73 | 1016.9 |
| 20260505011341 | 83 | 107 | 0.0 | 1.7 | 0.00 | 0.00 | 0.00 | 73 | 1017.0 |
| 20260505010837 | 83 | 52 | 1.7 | 2.6 | 0.00 | 0.00 | 0.00 | 73 | 1016.7 |
| 20260505010333 | 83 | 85 | 1.7 | 3.5 | 0.00 | 0.00 | 0.00 | 72 | 1016.7 |
| 20260505005830 | 83 | 103 | 1.7 | 5.2 | 0.00 | 0.00 | 0.00 | 72 | 1016.7 |
| 20260505005327 | 83 | 159 | 3.5 | 5.2 | 0.00 | 0.00 | 0.00 | 71 | 1016.6 |
| 20260505004824 | 83 | 87 | 0.9 | 2.6 | 0.00 | 0.00 | 0.00 | 71 | 1016.4 |
| 20260505004320 | 83 | 132 | 0.9 | 2.6 | 0.00 | 0.00 | 0.00 | 71 | 1016.5 |
| 20260505003818 | 83 | 147 | 0.9 | 3.5 | 0.00 | 0.00 | 0.00 | 71 | 1016.6 |
| 20260505003315 | 83 | 152 | 1.7 | 3.5 | 0.00 | 0.00 | 0.00 | 71 | 1016.4 |
| 20260505002811 | 83 | 118 | 3.5 | 5.2 | 0.00 | 0.00 | 0.00 | 71 | 1016.4 |
| 20260505002308 | 83 | 144 | 1.7 | 6.1 | 0.00 | 0.00 | 0.00 | 71 | 1016.5 |
| 20260505001806 | 83 | 86 | 1.7 | 3.5 | 0.00 | 0.00 | 0.00 | 70 | 1016.2 |
| 20260505001303 | 84 | 125 | 0.9 | 5.2 | 0.00 | 0.00 | 0.00 | 70 | 1016.6 |
| 20260505000800 | 84 | 150 | 2.6 | 6.1 | 0.00 | 0.00 | 0.00 | 69 | 1016.2 |
| 20260505000258 | 84 | 86 | 2.6 | 2.6 | 0.00 | 0.00 | 0.00 | 69 | 1016.2 |
| 20260504235754 | 84 | 165 | 1.7 | 5.2 | 0.00 | 0.00 | 0.00 | 70 | 1016.3 |
| 20260504235250 | 84 | 143 | 0.9 | 5.2 | 0.00 | 0.00 | 0.00 | 69 | 1016.3 |
| 20260504234748 | 84 | 192 | 1.7 | 5.2 | 0.00 | 0.00 | 0.00 | 69 | 1016.2 |
| 20260504234245 | 84 | 88 | 3.5 | 5.2 | 0.00 | 0.00 | 0.00 | 69 | 1016.1 |
| 20260504233741 | 84 | 67 | 2.6 | 5.2 | 0.00 | 0.00 | 0.00 | 69 | 1016.1 |
| 20260504233237 | 84 | 96 | 1.7 | 5.2 | 0.00 | 0.00 | 0.00 | 68 | 1016.4 |
| 20260504232735 | 84 | 83 | 3.5 | 7.0 | 0.00 | 0.00 | 0.00 | 68 | 1016.2 |
| 20260504232231 | 84 | 121 | 3.5 | 6.1 | 0.00 | 0.00 | 0.00 | 68 | 1016.4 |
| 20260504231728 | 85 | 110 | 3.5 | 3.5 | 0.00 | 0.00 | 0.00 | 68 | 1016.1 |
| 20260504231225 | 85 | 177 | 2.6 | 3.5 | 0.00 | 0.00 | 0.00 | 68 | 1015.8 |
| 20260504230721 | 85 | 84 | 3.5 | 6.1 | 0.00 | 0.00 | 0.00 | 67 | 1015.8 |
| 20260504230220 | 85 | 129 | 3.5 | 7.0 | 0.00 | 0.00 | 0.00 | 67 | 1015.8 |
| 20260504225718 | 85 | 133 | 1.7 | 3.5 | 0.00 | 0.00 | 0.00 | 67 | 1015.6 |
| 20260504225214 | 85 | 87 | 3.5 | 8.7 | 0.00 | 0.00 | 0.00 | 67 | 1015.7 |
| 20260504224711 | 85 | 81 | 2.6 | 5.2 | 0.00 | 0.00 | 0.00 | 67 | 1015.7 |
| 20260504224209 | 85 | 127 | 4.3 | 7.8 | 0.00 | 0.00 | 0.00 | 66 | 1015.5 |
| 20260504223704 | 85 | 123 | 3.5 | 7.0 | 0.00 | 0.00 | 0.00 | 65 | 1015.5 |
| 20260504223200 | 86 | 123 | 3.5 | 6.1 | 0.00 | 0.00 | 0.00 | 64 | 1015.4 |
| 20260504222658 | 86 | 91 | 2.6 | 5.2 | 0.00 | 0.00 | 0.00 | 65 | 1015.3 |
| 20260504222154 | 86 | 127 | 1.7 | 6.1 | 0.00 | 0.00 | 0.00 | 66 | 1015.4 |
| 20260504221651 | 87 | 51 | 2.6 | 6.1 | 0.00 | 0.00 | 0.00 | 66 | 1015.2 |
| 20260504221149 | 87 | 77 | 4.3 | 7.0 | 0.00 | 0.00 | 0.00 | 65 | 1015.1 |
| 20260504220645 | 87 | 89 | 2.6 | 3.5 | 0.00 | 0.00 | 0.00 | 64 | 1015.1 |
| 20260504220143 | 87 | 109 | 1.7 | 7.0 | 0.00 | 0.00 | 0.00 | 63 | 1015.0 |
| 20260504215638 | 88 | 101 | 2.6 | 7.8 | 0.00 | 0.00 | 0.00 | 63 | 1014.8 |
| 20260504215136 | 87 | 101 | 3.5 | 8.7 | 0.00 | 0.00 | 0.00 | 63 | 1014.9 |
| 20260504214632 | 88 | 82 | 4.3 | 7.0 | 0.00 | 0.00 | 0.00 | 63 | 1014.5 |
| 20260504214128 | 88 | 89 | 4.3 | 7.8 | 0.00 | 0.00 | 0.00 | 61 | 1014.7 |
| 20260504213625 | 89 | 46 | 5.2 | 7.0 | 0.00 | 0.00 | 0.00 | 60 | 1014.6 |
| 20260504213122 | 89 | 77 | 4.3 | 6.1 | 0.00 | 0.00 | 0.00 | 60 | 1014.6 |
| 20260504212618 | 89 | 70 | 2.6 | 5.2 | 0.00 | 0.00 | 0.00 | 59 | 1014.7 |
| 20260504212115 | 89 | 211 | 3.5 | 6.1 | 0.00 | 0.00 | 0.00 | 59 | 1014.3 |
| 20260504211612 | 89 | 153 | 3.5 | 7.0 | 0.00 | 0.00 | 0.00 | 58 | 1014.3 |
| 20260504211109 | 89 | 118 | 3.5 | 9.6 | 0.00 | 0.00 | 0.00 | 58 | 1014.4 |
| 20260504210607 | 89 | 64 | 2.6 | 7.0 | 0.00 | 0.00 | 0.00 | 59 | 1014.4 |
| 20260504205601 | 90 | 161 | 5.2 | 7.0 | 0.00 | 0.00 | 0.00 | 57 | 1014.3 |
| 20260504205058 | 89 | 85 | 3.5 | 8.7 | 0.00 | 0.00 | 0.00 | 60 | 1014.3 |
| 20260504204556 | 90 | 67 | 2.6 | 9.6 | 0.00 | 0.00 | 0.00 | 60 | 1014.3 |
| 20260504204055 | 90 | 126 | 5.2 | 11.3 | 0.00 | 0.00 | 0.00 | 58 | 1014.1 |
| 20260504203553 | 90 | 128 | 4.3 | 8.7 | 0.00 | 0.00 | 0.00 | 58 | 1014.4 |
| 20260504203050 | 90 | 210 | 3.5 | 5.2 | 0.00 | 0.00 | 0.00 | 57 | 1014.0 |
| 20260504202545 | 90 | 155 | 6.1 | 8.7 | 0.00 | 0.00 | 0.00 | 57 | 1014.0 |
| 20260504202042 | 90 | 103 | 5.2 | 8.7 | 0.00 | 0.00 | 0.00 | 56 | 1014.0 |
| 20260504201539 | 90 | 123 | 5.2 | 11.3 | 0.00 | 0.00 | 0.00 | 56 | 1013.9 |
| 20260504201037 | 91 | 86 | 4.3 | 9.6 | 0.00 | 0.00 | 0.00 | 56 | 1014.1 |
| 20260504200533 | 91 | 126 | 1.7 | 5.2 | 0.00 | 0.00 | 0.00 | 56 | 1014.0 |
| 20260504200030 | 91 | 75 | 2.6 | 7.8 | 0.00 | 0.00 | 0.00 | 57 | 1014.2 |
| 20260504195526 | 91 | 118 | 5.2 | 8.7 | 0.00 | 0.00 | 0.00 | 54 | 1014.4 |
| 20260504195023 | 91 | 138 | 6.1 | 9.6 | 0.00 | 0.00 | 0.00 | 53 | 1014.4 |
| 20260504194519 | 91 | 52 | 2.6 | 7.8 | 0.00 | 0.00 | 0.00 | 54 | 1014.3 |
| 20260504194015 | 92 | 158 | 3.5 | 8.7 | 0.00 | 0.00 | 0.00 | 54 | 1014.3 |
| 20260504193512 | 91 | 73 | 1.7 | 6.1 | 0.00 | 0.00 | 0.00 | 53 | 1014.4 |
| 20260504193011 | 91 | 117 | 4.3 | 13.0 | 0.00 | 0.00 | 0.00 | 55 | 1014.2 |
| 20260504192508 | 91 | 116 | 5.2 | 8.7 | 0.00 | 0.00 | 0.00 | 55 | 1014.4 |
| 20260504192007 | 92 | 114 | 7.0 | 11.3 | 0.00 | 0.00 | 0.00 | 53 | 1014.3 |
| 20260504191504 | 93 | 120 | 4.3 | 7.0 | 0.00 | 0.00 | 0.00 | 51 | 1014.3 |
| 20260504190959 | 93 | 105 | 5.2 | 9.6 | 0.00 | 0.00 | 0.00 | 49 | 1014.3 |
| 20260504190455 | 93 | 88 | 4.3 | 9.6 | 0.00 | 0.00 | 0.00 | 50 | 1014.3 |
| 20260504185952 | 92 | 150 | 7.8 | 9.6 | 0.00 | 0.00 | 0.00 | 51 | 1014.5 |
| 20260504185449 | 93 | 199 | 7.8 | 9.6 | 0.00 | 0.00 | 0.00 | 50 | 1014.6 |
| 20260504184945 | 92 | 185 | 5.2 | 9.6 | 0.00 | 0.00 | 0.00 | 50 | 1014.8 |
| 20260504184441 | 92 | 67 | 3.5 | 13.0 | 0.00 | 0.00 | 0.00 | 52 | 1014.9 |
| 20260504183937 | 93 | 52 | 5.2 | 7.8 | 0.00 | 0.00 | 0.00 | 50 | 1014.8 |
| 20260504183434 | 92 | 179 | 5.2 | 8.7 | 0.00 | 0.00 | 0.00 | 51 | 1014.9 |
| 20260504182932 | 94 | 111 | 3.5 | 7.8 | 0.00 | 0.00 | 0.00 | 50 | 1014.6 |
| 20260504182429 | 93 | 125 | 2.6 | 3.5 | 0.00 | 0.00 | 0.00 | 50 | 1014.8 |
| 20260504181926 | 93 | 238 | 1.7 | 6.1 | 0.00 | 0.00 | 0.00 | 50 | 1014.7 |
| 20260504181423 | 93 | 165 | 3.5 | 9.6 | 0.00 | 0.00 | 0.00 | 49 | 1015.0 |
| 20260504180922 | 93 | 111 | 6.1 | 11.3 | 0.00 | 0.00 | 0.00 | 49 | 1015.0 |
| 20260504180420 | 93 | 163 | 2.6 | 6.1 | 0.00 | 0.00 | 0.00 | 48 | 1015.0 |
| 20260504175918 | 93 | 91 | 3.5 | 12.2 | 0.00 | 0.00 | 0.00 | 46 | 1014.9 |
| 20260504175415 | 92 | 177 | 5.2 | 7.8 | 0.00 | 0.00 | 0.00 | 50 | 1015.1 |
| 20260504174913 | 93 | 160 | 5.2 | 7.8 | 0.00 | 0.00 | 0.00 | 47 | 1015.3 |
| 20260504174410 | 93 | 119 | 3.5 | 7.0 | 0.00 | 0.00 | 0.00 | 46 | 1015.2 |
| 20260504173907 | 93 | 186 | 5.2 | 11.3 | 0.00 | 0.00 | 0.00 | 46 | 1015.4 |
| 20260504173403 | 92 | 93 | 4.3 | 9.6 | 0.00 | 0.00 | 0.00 | 45 | 1015.2 |
| 20260504172901 | 93 | 132 | 5.2 | 12.2 | 0.00 | 0.00 | 0.00 | 48 | 1015.3 |
| 20260504172357 | 92 | 93 | 1.7 | 6.1 | 0.00 | 0.00 | 0.00 | 47 | 1015.5 |
| 20260504171853 | 92 | 57 | 7.0 | 11.3 | 0.00 | 0.00 | 0.00 | 46 | 1015.5 |
| 20260504171350 | 93 | 100 | 7.0 | 8.7 | 0.00 | 0.00 | 0.00 | 45 | 1015.6 |
| 20260504170848 | 93 | 122 | 4.3 | 8.7 | 0.00 | 0.00 | 0.00 | 45 | 1015.6 |
| 20260504170344 | 93 | 141 | 4.3 | 11.3 | 0.00 | 0.00 | 0.00 | 45 | 1015.8 |
| 20260504160303 | 91 | 78 | 7.8 | 9.6 | 0.00 | 0.00 | 0.00 | 47 | 1016.4 |
| 20260504150728 | 91 | 153 | 3.5 | 7.0 | 0.00 | 0.00 | 0.00 | 52 | 1016.7 |
| 20260504150225 | 91 | 116 | 6.1 | 8.7 | 0.00 | 0.00 | 0.00 | 53 | 1017.0 |